Year,Month,Day,Hour,Minute,Value (Times are PST for temperature in C)
2006,08,13,00,00,14.80
2006,08,13,00,01,14.80
2006,08,13,00,02,14.80
2006,08,13,00,03,14.80
2006,08,13,00,04,14.80
2006,08,13,00,05,14.80
2006,08,13,00,06,14.80
2006,08,13,00,07,14.80
2006,08,13,00,08,14.80
2006,08,13,00,09,14.80
2006,08,13,00,10,14.80
2006,08,13,00,11,14.80
2006,08,13,00,12,14.80
2006,08,13,00,13,14.70
2006,08,13,00,14,14.70
2006,08,13,00,15,14.70
2006,08,13,00,16,14.70
2006,08,13,00,17,14.70
2006,08,13,00,18,14.60
2006,08,13,00,19,14.60
2006,08,13,00,20,14.60
2006,08,13,00,21,14.60
2006,08,13,00,22,14.60
2006,08,13,00,23,14.60
2006,08,13,00,24,14.60
2006,08,13,00,25,14.50
2006,08,13,00,26,14.50
2006,08,13,00,27,14.50
2006,08,13,00,28,14.50
2006,08,13,00,29,14.50
2006,08,13,00,30,14.50
2006,08,13,00,31,14.50
2006,08,13,00,32,14.50
2006,08,13,00,33,14.50
2006,08,13,00,34,14.50
2006,08,13,00,35,14.40
2006,08,13,00,36,14.40
2006,08,13,00,37,14.40
2006,08,13,00,38,14.40
2006,08,13,00,39,14.40
2006,08,13,00,40,14.40
2006,08,13,00,41,14.40
2006,08,13,00,42,14.40
2006,08,13,00,43,14.40
2006,08,13,00,44,14.30
2006,08,13,00,45,14.30
2006,08,13,00,46,14.30
2006,08,13,00,47,14.30
2006,08,13,00,48,14.30
2006,08,13,00,49,14.30
2006,08,13,00,50,14.30
2006,08,13,00,51,14.20
2006,08,13,00,52,14.20
2006,08,13,00,53,14.20
2006,08,13,00,54,14.20
2006,08,13,00,55,14.20
2006,08,13,00,56,14.20
2006,08,13,00,57,14.20
2006,08,13,00,58,14.20
2006,08,13,00,59,14.20
2006,08,13,01,00,14.20
2006,08,13,01,01,14.20
2006,08,13,01,02,14.20
2006,08,13,01,03,14.20
2006,08,13,01,04,14.20
2006,08,13,01,05,14.20
2006,08,13,01,06,14.20
2006,08,13,01,07,14.20
2006,08,13,01,08,14.20
2006,08,13,01,09,14.10
2006,08,13,01,10,14.10
2006,08,13,01,11,14.10
2006,08,13,01,12,14.10
2006,08,13,01,13,14.10
2006,08,13,01,14,14.10
2006,08,13,01,15,14.10
2006,08,13,01,16,14.10
2006,08,13,01,17,14.10
2006,08,13,01,18,14.10
2006,08,13,01,19,14.10
2006,08,13,01,20,14.20
2006,08,13,01,21,14.20
2006,08,13,01,22,14.20
2006,08,13,01,23,14.20
2006,08,13,01,24,14.20
2006,08,13,01,25,14.10
2006,08,13,01,26,14.10
2006,08,13,01,27,14.10
2006,08,13,01,28,14.10
2006,08,13,01,29,14.10
2006,08,13,01,30,14.00
2006,08,13,01,31,14.00
2006,08,13,01,32,14.00
2006,08,13,01,33,13.90
2006,08,13,01,34,13.90
2006,08,13,01,35,13.90
2006,08,13,01,36,13.80
2006,08,13,01,37,13.80
2006,08,13,01,38,13.80
2006,08,13,01,39,13.80
2006,08,13,01,40,13.80
2006,08,13,01,41,13.70
2006,08,13,01,42,13.70
2006,08,13,01,43,13.70
2006,08,13,01,44,13.70
2006,08,13,01,45,13.70
2006,08,13,01,46,13.70
2006,08,13,01,47,13.70
2006,08,13,01,48,13.70
2006,08,13,01,49,13.70
2006,08,13,01,50,13.70
2006,08,13,01,51,13.70
2006,08,13,01,52,13.70
2006,08,13,01,53,13.60
2006,08,13,01,54,13.60
2006,08,13,01,55,13.60
2006,08,13,01,56,13.60
2006,08,13,01,57,13.60
2006,08,13,01,58,13.60
2006,08,13,01,59,13.60
2006,08,13,02,00,13.60
2006,08,13,02,01,13.60
2006,08,13,02,02,13.60
2006,08,13,02,03,13.60
2006,08,13,02,04,13.60
2006,08,13,02,05,13.70
2006,08,13,02,06,13.70
2006,08,13,02,07,13.70
2006,08,13,02,08,13.70
2006,08,13,02,09,13.70
2006,08,13,02,10,13.70
2006,08,13,02,11,13.70
2006,08,13,02,12,13.70
2006,08,13,02,13,13.60
2006,08,13,02,14,13.60
2006,08,13,02,15,13.60
2006,08,13,02,16,13.60
2006,08,13,02,17,13.60
2006,08,13,02,18,13.60
2006,08,13,02,19,13.60
2006,08,13,02,20,13.60
2006,08,13,02,21,13.50
2006,08,13,02,22,13.50
2006,08,13,02,23,13.50
2006,08,13,02,24,13.50
2006,08,13,02,25,13.50
2006,08,13,02,26,13.50
2006,08,13,02,27,13.50
2006,08,13,02,28,13.50
2006,08,13,02,29,13.40
2006,08,13,02,30,13.40
2006,08,13,02,31,13.40
2006,08,13,02,32,13.40
2006,08,13,02,33,13.40
2006,08,13,02,34,13.30
2006,08,13,02,35,13.30
2006,08,13,02,36,13.30
2006,08,13,02,37,13.30
2006,08,13,02,38,13.30
2006,08,13,02,39,13.30
2006,08,13,02,40,13.30
2006,08,13,02,41,13.30
2006,08,13,02,42,13.30
2006,08,13,02,43,13.20
2006,08,13,02,44,13.20
2006,08,13,02,45,13.20
2006,08,13,02,46,13.20
2006,08,13,02,47,13.20
2006,08,13,02,48,13.20
2006,08,13,02,49,13.20
2006,08,13,02,50,13.10
2006,08,13,02,51,13.10
2006,08,13,02,52,13.10
2006,08,13,02,53,13.10
2006,08,13,02,54,13.10
2006,08,13,02,55,13.10
2006,08,13,02,56,13.10
2006,08,13,02,57,13.10
2006,08,13,02,58,13.10
2006,08,13,02,59,13.10
2006,08,13,03,00,13.10
2006,08,13,03,01,13.00
2006,08,13,03,02,13.00
2006,08,13,03,03,13.00
2006,08,13,03,04,13.00
2006,08,13,03,05,13.00
2006,08,13,03,06,13.00
2006,08,13,03,07,13.00
2006,08,13,03,08,13.00
2006,08,13,03,09,13.00
2006,08,13,03,10,12.90
2006,08,13,03,11,12.90
2006,08,13,03,12,12.90
2006,08,13,03,13,12.90
2006,08,13,03,14,12.80
2006,08,13,03,15,12.80
2006,08,13,03,16,12.80
2006,08,13,03,17,12.80
2006,08,13,03,18,12.80
2006,08,13,03,19,12.80
2006,08,13,03,20,12.80
2006,08,13,03,21,12.80
2006,08,13,03,22,12.80
2006,08,13,03,23,12.80
2006,08,13,03,24,12.80
2006,08,13,03,25,12.80
2006,08,13,03,26,12.80
2006,08,13,03,27,12.80
2006,08,13,03,28,12.80
2006,08,13,03,29,12.80
2006,08,13,03,30,12.80
2006,08,13,03,31,12.70
2006,08,13,03,32,12.70
2006,08,13,03,33,12.70
2006,08,13,03,34,12.70
2006,08,13,03,35,12.70
2006,08,13,03,36,12.70
2006,08,13,03,37,12.70
2006,08,13,03,38,12.70
2006,08,13,03,39,12.70
2006,08,13,03,40,12.70
2006,08,13,03,41,12.70
2006,08,13,03,42,12.70
2006,08,13,03,43,12.70
2006,08,13,03,44,12.70
2006,08,13,03,45,12.70
2006,08,13,03,46,12.70
2006,08,13,03,47,12.70
2006,08,13,03,48,12.60
2006,08,13,03,49,12.60
2006,08,13,03,50,12.60
2006,08,13,03,51,12.60
2006,08,13,03,52,12.60
2006,08,13,03,53,12.60
2006,08,13,03,54,12.60
2006,08,13,03,55,12.60
2006,08,13,03,56,12.60
2006,08,13,03,57,12.50
2006,08,13,03,58,12.50
2006,08,13,03,59,12.50
2006,08,13,04,00,12.50
2006,08,13,04,01,12.50
2006,08,13,04,02,12.50
2006,08,13,04,03,12.50
2006,08,13,04,04,12.40
2006,08,13,04,05,12.40
2006,08,13,04,06,12.40
2006,08,13,04,07,12.40
2006,08,13,04,08,12.40
2006,08,13,04,09,12.30
2006,08,13,04,10,12.30
2006,08,13,04,11,12.30
2006,08,13,04,12,12.30
2006,08,13,04,13,12.30
2006,08,13,04,14,12.30
2006,08,13,04,15,12.30
2006,08,13,04,16,12.30
2006,08,13,04,17,12.30
2006,08,13,04,18,12.30
2006,08,13,04,19,12.30
2006,08,13,04,20,12.30
2006,08,13,04,21,12.30
2006,08,13,04,22,12.20
2006,08,13,04,23,12.20
2006,08,13,04,24,12.20
2006,08,13,04,25,12.20
2006,08,13,04,26,12.20
2006,08,13,04,27,12.20
2006,08,13,04,28,12.20
2006,08,13,04,29,12.20
2006,08,13,04,30,12.20
2006,08,13,04,31,12.20
2006,08,13,04,32,12.20
2006,08,13,04,33,12.10
2006,08,13,04,34,12.10
2006,08,13,04,35,12.10
2006,08,13,04,36,12.10
2006,08,13,04,37,12.10
2006,08,13,04,38,12.10
2006,08,13,04,39,12.10
2006,08,13,04,40,12.10
2006,08,13,04,41,12.00
2006,08,13,04,42,12.00
2006,08,13,04,43,12.00
2006,08,13,04,44,12.00
2006,08,13,04,45,12.00
2006,08,13,04,46,12.00
2006,08,13,04,47,12.00
2006,08,13,04,48,12.00
2006,08,13,04,49,12.00
2006,08,13,04,50,12.00
2006,08,13,04,51,12.00
2006,08,13,04,52,12.00
2006,08,13,04,53,11.90
2006,08,13,04,54,11.90
2006,08,13,04,55,11.90
2006,08,13,04,56,12.00
2006,08,13,04,57,12.00
2006,08,13,04,58,12.00
2006,08,13,04,59,12.00
2006,08,13,05,00,12.10
2006,08,13,05,01,12.10
2006,08,13,05,02,12.10
2006,08,13,05,03,12.10
2006,08,13,05,04,12.10
2006,08,13,05,05,12.10
2006,08,13,05,06,12.10
2006,08,13,05,07,12.10
2006,08,13,05,08,12.10
2006,08,13,05,09,12.10
2006,08,13,05,10,12.20
2006,08,13,05,11,12.20
2006,08,13,05,12,12.20
2006,08,13,05,13,12.20
2006,08,13,05,14,12.20
2006,08,13,05,15,12.20
2006,08,13,05,16,12.30
2006,08,13,05,17,12.30
2006,08,13,05,18,12.30
2006,08,13,05,19,12.30
2006,08,13,05,20,12.30
2006,08,13,05,21,12.30
2006,08,13,05,22,12.30
2006,08,13,05,23,12.30
2006,08,13,05,24,12.30
2006,08,13,05,25,12.30
2006,08,13,05,26,12.30
2006,08,13,05,27,12.30
2006,08,13,05,28,12.30
2006,08,13,05,29,12.30
2006,08,13,05,30,12.40
2006,08,13,05,31,12.40
2006,08,13,05,32,12.40
2006,08,13,05,33,12.40
2006,08,13,05,34,12.40
2006,08,13,05,35,12.40
2006,08,13,05,36,12.40
2006,08,13,05,37,12.40
2006,08,13,05,38,12.40
2006,08,13,05,39,12.40
2006,08,13,05,40,12.30
2006,08,13,05,41,12.30
2006,08,13,05,42,12.30
2006,08,13,05,43,12.30
2006,08,13,05,44,12.30
2006,08,13,05,45,12.30
2006,08,13,05,46,12.20
2006,08,13,05,47,12.20
2006,08,13,05,48,12.10
2006,08,13,05,49,12.10
2006,08,13,05,50,12.00
2006,08,13,05,51,12.00
2006,08,13,05,52,12.00
2006,08,13,05,53,11.90
2006,08,13,05,54,11.90
2006,08,13,05,55,11.90
2006,08,13,05,56,11.80
2006,08,13,05,57,11.80
2006,08,13,05,58,11.80
2006,08,13,05,59,11.80
2006,08,13,06,00,11.80
2006,08,13,06,01,11.80
2006,08,13,06,02,11.70
2006,08,13,06,03,11.70
2006,08,13,06,04,11.70
2006,08,13,06,05,11.70
2006,08,13,06,06,11.60
2006,08,13,06,07,11.60
2006,08,13,06,08,11.60
2006,08,13,06,09,11.60
2006,08,13,06,10,11.60
2006,08,13,06,11,11.60
2006,08,13,06,12,11.60
2006,08,13,06,13,11.60
2006,08,13,06,14,11.50
2006,08,13,06,15,11.40
2006,08,13,06,16,11.40
2006,08,13,06,17,11.40
2006,08,13,06,18,11.40
2006,08,13,06,19,11.40
2006,08,13,06,20,11.40
2006,08,13,06,21,11.40
2006,08,13,06,22,11.40
2006,08,13,06,23,11.40
2006,08,13,06,24,11.40
2006,08,13,06,25,11.40
2006,08,13,06,26,11.40
2006,08,13,06,27,11.40
2006,08,13,06,28,11.40
2006,08,13,06,29,11.40
2006,08,13,06,30,11.40
2006,08,13,06,31,11.40
2006,08,13,06,32,11.40
2006,08,13,06,33,11.30
2006,08,13,06,34,11.40
2006,08,13,06,35,11.30
2006,08,13,06,36,11.30
2006,08,13,06,37,11.30
2006,08,13,06,38,11.30
2006,08,13,06,39,11.30
2006,08,13,06,40,11.30
2006,08,13,06,41,11.30
2006,08,13,06,42,11.30
2006,08,13,06,43,11.30
2006,08,13,06,44,11.30
2006,08,13,06,45,11.30
2006,08,13,06,46,11.30
2006,08,13,06,47,11.40
2006,08,13,06,48,11.40
2006,08,13,06,49,11.40
2006,08,13,06,50,11.40
2006,08,13,06,51,11.40
2006,08,13,06,52,11.40
2006,08,13,06,53,11.40
2006,08,13,06,54,11.40
2006,08,13,06,55,11.40
2006,08,13,06,56,11.40
2006,08,13,06,57,11.40
2006,08,13,06,58,11.40
2006,08,13,06,59,11.40
2006,08,13,07,00,11.40
2006,08,13,07,01,11.40
2006,08,13,07,02,11.40
2006,08,13,07,03,11.40
2006,08,13,07,04,11.50
2006,08,13,07,05,11.60
2006,08,13,07,06,11.60
2006,08,13,07,07,11.60
2006,08,13,07,08,11.70
2006,08,13,07,09,11.70
2006,08,13,07,10,11.80
2006,08,13,07,11,11.80
2006,08,13,07,12,11.80
2006,08,13,07,13,11.80
2006,08,13,07,14,11.80
2006,08,13,07,15,11.80
2006,08,13,07,16,11.80
2006,08,13,07,17,11.90
2006,08,13,07,18,11.90
2006,08,13,07,19,12.00
2006,08,13,07,20,12.10
2006,08,13,07,21,12.10
2006,08,13,07,22,12.20
2006,08,13,07,23,12.20
2006,08,13,07,24,12.30
2006,08,13,07,25,12.30
2006,08,13,07,26,12.40
2006,08,13,07,27,12.40
2006,08,13,07,28,12.50
2006,08,13,07,29,12.50
2006,08,13,07,30,12.50
2006,08,13,07,31,12.60
2006,08,13,07,32,12.60
2006,08,13,07,33,12.70
2006,08,13,07,34,12.70
2006,08,13,07,35,12.80
2006,08,13,07,36,12.80
2006,08,13,07,37,12.90
2006,08,13,07,38,13.00
2006,08,13,07,39,13.00
2006,08,13,07,40,13.10
2006,08,13,07,41,13.20
2006,08,13,07,42,13.30
2006,08,13,07,43,13.30
2006,08,13,07,44,13.50
2006,08,13,07,45,13.60
2006,08,13,07,46,13.70
2006,08,13,07,47,13.90
2006,08,13,07,48,14.00
2006,08,13,07,49,14.10
2006,08,13,07,50,14.30
2006,08,13,07,51,14.50
2006,08,13,07,52,14.60
2006,08,13,07,53,14.70
2006,08,13,07,54,14.80
2006,08,13,07,55,14.80
2006,08,13,07,56,15.00
2006,08,13,07,57,15.10
2006,08,13,07,58,15.20
2006,08,13,07,59,15.20
2006,08,13,08,00,15.30
2006,08,13,08,01,15.30
2006,08,13,08,02,15.40
2006,08,13,08,03,15.50
2006,08,13,08,04,15.60
2006,08,13,08,05,15.70
2006,08,13,08,06,15.80
2006,08,13,08,07,15.80
2006,08,13,08,08,15.80
2006,08,13,08,09,15.90
2006,08,13,08,10,16.00
2006,08,13,08,11,16.10
2006,08,13,08,12,16.10
2006,08,13,08,13,16.20
2006,08,13,08,14,16.30
2006,08,13,08,15,16.30
2006,08,13,08,16,16.40
2006,08,13,08,17,16.50
2006,08,13,08,18,16.60
2006,08,13,08,19,16.60
2006,08,13,08,20,16.60
2006,08,13,08,21,16.50
2006,08,13,08,22,16.40
2006,08,13,08,23,16.40
2006,08,13,08,24,16.40
2006,08,13,08,25,16.40
2006,08,13,08,26,16.40
2006,08,13,08,27,16.60
2006,08,13,08,28,16.70
2006,08,13,08,29,16.70
2006,08,13,08,30,16.70
2006,08,13,08,31,16.80
2006,08,13,08,32,16.90
2006,08,13,08,33,17.00
2006,08,13,08,34,17.00
2006,08,13,08,35,17.10
2006,08,13,08,36,17.20
2006,08,13,08,37,17.30
2006,08,13,08,38,17.30
2006,08,13,08,39,17.30
2006,08,13,08,40,17.30
2006,08,13,08,41,17.30
2006,08,13,08,42,17.30
2006,08,13,08,43,17.30
2006,08,13,08,44,17.40
2006,08,13,08,45,17.40
2006,08,13,08,46,17.30
2006,08,13,08,47,17.30
2006,08,13,08,48,17.30
2006,08,13,08,49,17.30
2006,08,13,08,50,17.30
2006,08,13,08,51,17.30
2006,08,13,08,52,17.30
2006,08,13,08,53,17.30
2006,08,13,08,54,17.30
2006,08,13,08,55,17.40
2006,08,13,08,56,17.40
2006,08,13,08,57,17.40
2006,08,13,08,58,17.40
2006,08,13,08,59,17.40
2006,08,13,09,00,17.40
2006,08,13,09,01,17.40
2006,08,13,09,02,17.40
2006,08,13,09,03,17.40
2006,08,13,09,04,17.40
2006,08,13,09,05,17.40
2006,08,13,09,06,17.40
2006,08,13,09,07,17.40
2006,08,13,09,08,17.40
2006,08,13,09,09,17.40
2006,08,13,09,10,17.40
2006,08,13,09,11,17.40
2006,08,13,09,12,17.40
2006,08,13,09,13,17.40
2006,08,13,09,14,17.40
2006,08,13,09,15,17.40
2006,08,13,09,16,17.40
2006,08,13,09,17,17.40
2006,08,13,09,18,17.40
2006,08,13,09,19,17.30
2006,08,13,09,20,17.30
2006,08,13,09,21,17.30
2006,08,13,09,22,17.30
2006,08,13,09,23,17.40
2006,08,13,09,24,17.50
2006,08,13,09,25,17.70
2006,08,13,09,26,17.80
2006,08,13,09,27,17.90
2006,08,13,09,28,17.90
2006,08,13,09,29,18.00
2006,08,13,09,30,18.10
2006,08,13,09,31,18.20
2006,08,13,09,32,18.20
2006,08,13,09,33,18.20
2006,08,13,09,34,18.20
2006,08,13,09,35,18.20
2006,08,13,09,36,18.30
2006,08,13,09,37,18.30
2006,08,13,09,38,18.40
2006,08,13,09,39,18.40
2006,08,13,09,40,18.40
2006,08,13,09,41,18.50
2006,08,13,09,42,18.50
2006,08,13,09,43,18.50
2006,08,13,09,44,18.50
2006,08,13,09,45,18.50
2006,08,13,09,46,18.60
2006,08,13,09,47,18.70
2006,08,13,09,48,18.80
2006,08,13,09,49,18.70
2006,08,13,09,50,18.60
2006,08,13,09,51,18.50
2006,08,13,09,52,18.50
2006,08,13,09,53,18.40
2006,08,13,09,54,18.40
2006,08,13,09,55,18.40
2006,08,13,09,56,18.40
2006,08,13,09,57,18.40
2006,08,13,09,58,18.40
2006,08,13,09,59,18.40
2006,08,13,10,00,18.40
2006,08,13,10,01,18.40
2006,08,13,10,02,18.40
2006,08,13,10,03,18.50
2006,08,13,10,04,18.50
2006,08,13,10,05,18.60
2006,08,13,10,06,18.70
2006,08,13,10,07,18.80
2006,08,13,10,08,18.90
2006,08,13,10,09,18.90
2006,08,13,10,10,19.10
2006,08,13,10,11,19.10
2006,08,13,10,12,19.10
2006,08,13,10,13,19.30
2006,08,13,10,14,19.40
2006,08,13,10,15,19.40
2006,08,13,10,16,19.60
2006,08,13,10,17,19.60
2006,08,13,10,18,19.60
2006,08,13,10,19,19.70
2006,08,13,10,20,19.70
2006,08,13,10,21,19.80
2006,08,13,10,22,19.70
2006,08,13,10,23,19.60
2006,08,13,10,24,19.50
2006,08,13,10,25,19.40
2006,08,13,10,26,19.30
2006,08,13,10,27,19.10
2006,08,13,10,28,19.10
2006,08,13,10,29,19.00
2006,08,13,10,30,18.90
2006,08,13,10,31,18.90
2006,08,13,10,32,18.90
2006,08,13,10,33,18.80
2006,08,13,10,34,18.80
2006,08,13,10,35,18.70
2006,08,13,10,36,18.70
2006,08,13,10,37,18.70
2006,08,13,10,38,18.80
2006,08,13,10,39,18.80
2006,08,13,10,40,18.90
2006,08,13,10,41,18.90
2006,08,13,10,42,19.10
2006,08,13,10,43,19.00
2006,08,13,10,44,18.90
2006,08,13,10,45,18.90
2006,08,13,10,46,19.00
2006,08,13,10,47,19.00
2006,08,13,10,48,18.90
2006,08,13,10,49,18.90
2006,08,13,10,50,18.90
2006,08,13,10,51,18.90
2006,08,13,10,52,18.90
2006,08,13,10,53,18.90
2006,08,13,10,54,18.90
2006,08,13,10,55,18.80
2006,08,13,10,56,18.90
2006,08,13,10,57,18.90
2006,08,13,10,58,18.90
2006,08,13,10,59,18.90
2006,08,13,11,00,19.00
2006,08,13,11,01,19.10
2006,08,13,11,02,19.10
2006,08,13,11,03,19.10
2006,08,13,11,04,19.10
2006,08,13,11,05,19.10
2006,08,13,11,06,19.10
2006,08,13,11,07,19.10
2006,08,13,11,08,18.90
2006,08,13,11,09,18.90
2006,08,13,11,10,18.80
2006,08,13,11,11,18.80
2006,08,13,11,12,18.80
2006,08,13,11,13,18.90
2006,08,13,11,14,18.90
2006,08,13,11,15,18.90
2006,08,13,11,16,18.90
2006,08,13,11,17,19.00
2006,08,13,11,18,19.10
2006,08,13,11,19,19.10
2006,08,13,11,20,19.00
2006,08,13,11,21,18.90
2006,08,13,11,22,18.80
2006,08,13,11,23,18.80
2006,08,13,11,24,18.80
2006,08,13,11,25,18.80
2006,08,13,11,26,18.70
2006,08,13,11,27,18.70
2006,08,13,11,28,18.60
2006,08,13,11,29,18.60
2006,08,13,11,30,18.50
2006,08,13,11,31,18.60
2006,08,13,11,32,18.60
2006,08,13,11,33,18.60
2006,08,13,11,34,18.70
2006,08,13,11,35,18.80
2006,08,13,11,36,18.90
2006,08,13,11,37,18.90
2006,08,13,11,38,19.00
2006,08,13,11,39,19.10
2006,08,13,11,40,19.20
2006,08,13,11,41,19.30
2006,08,13,11,42,19.40
2006,08,13,11,43,19.30
2006,08,13,11,44,19.30
2006,08,13,11,45,19.30
2006,08,13,11,46,19.30
2006,08,13,11,47,19.40
2006,08,13,11,48,19.50
2006,08,13,11,49,19.60
2006,08,13,11,50,19.60
2006,08,13,11,51,19.60
2006,08,13,11,52,19.60
2006,08,13,11,53,19.60
2006,08,13,11,54,19.70
2006,08,13,11,55,19.80
2006,08,13,11,56,19.90
2006,08,13,11,57,19.90
2006,08,13,11,58,19.90
2006,08,13,11,59,19.90
2006,08,13,12,00,19.90
2006,08,13,12,01,19.90
2006,08,13,12,02,20.00
2006,08,13,12,03,20.00
2006,08,13,12,04,19.90
2006,08,13,12,05,19.90
2006,08,13,12,06,19.90
2006,08,13,12,07,19.80
2006,08,13,12,08,19.80
2006,08,13,12,09,19.70
2006,08,13,12,10,19.70
2006,08,13,12,11,19.60
2006,08,13,12,12,19.60
2006,08,13,12,13,19.70
2006,08,13,12,14,19.80
2006,08,13,12,15,19.80
2006,08,13,12,16,19.80
2006,08,13,12,17,19.90
2006,08,13,12,18,19.90
2006,08,13,12,19,20.00
2006,08,13,12,20,20.10
2006,08,13,12,21,19.90
2006,08,13,12,22,20.10
2006,08,13,12,23,20.20
2006,08,13,12,24,20.20
2006,08,13,12,25,20.30
2006,08,13,12,26,20.40
2006,08,13,12,27,20.40
2006,08,13,12,28,20.40
2006,08,13,12,29,20.30
2006,08,13,12,30,20.30
2006,08,13,12,31,20.20
2006,08,13,12,32,20.20
2006,08,13,12,33,20.20
2006,08,13,12,34,20.10
2006,08,13,12,35,20.10
2006,08,13,12,36,20.10
2006,08,13,12,37,20.00
2006,08,13,12,38,20.00
2006,08,13,12,39,20.10
2006,08,13,12,40,20.20
2006,08,13,12,41,20.20
2006,08,13,12,42,20.20
2006,08,13,12,43,20.30
2006,08,13,12,44,20.30
2006,08,13,12,45,20.40
2006,08,13,12,46,20.50
2006,08,13,12,47,20.50
2006,08,13,12,48,20.50
2006,08,13,12,49,20.60
2006,08,13,12,50,20.60
2006,08,13,12,51,20.60
2006,08,13,12,52,20.60
2006,08,13,12,53,20.60
2006,08,13,12,54,20.60
2006,08,13,12,55,20.50
2006,08,13,12,56,20.50
2006,08,13,12,57,20.50
2006,08,13,12,58,20.50
2006,08,13,12,59,20.50
2006,08,13,13,00,20.50
2006,08,13,13,01,20.50
2006,08,13,13,02,20.40
2006,08,13,13,03,20.20
2006,08,13,13,04,20.10
2006,08,13,13,05,20.10
2006,08,13,13,06,20.00
2006,08,13,13,07,20.10
2006,08,13,13,08,20.20
2006,08,13,13,09,20.40
2006,08,13,13,10,20.40
2006,08,13,13,11,20.40
2006,08,13,13,12,20.20
2006,08,13,13,13,20.20
2006,08,13,13,14,20.20
2006,08,13,13,15,20.20
2006,08,13,13,16,20.20
2006,08,13,13,17,20.20
2006,08,13,13,18,20.40
2006,08,13,13,19,20.70
2006,08,13,13,20,20.80
2006,08,13,13,21,20.90
2006,08,13,13,22,21.00
2006,08,13,13,23,21.00
2006,08,13,13,24,21.00
2006,08,13,13,25,20.90
2006,08,13,13,26,20.90
2006,08,13,13,27,20.90
2006,08,13,13,28,20.90
2006,08,13,13,29,20.90
2006,08,13,13,30,20.90
2006,08,13,13,31,20.90
2006,08,13,13,32,20.80
2006,08,13,13,33,20.80
2006,08,13,13,34,20.70
2006,08,13,13,35,20.70
2006,08,13,13,36,20.80
2006,08,13,13,37,20.80
2006,08,13,13,38,20.90
2006,08,13,13,39,20.80
2006,08,13,13,40,20.70
2006,08,13,13,41,20.60
2006,08,13,13,42,20.50
2006,08,13,13,43,20.40
2006,08,13,13,44,20.40
2006,08,13,13,45,20.50
2006,08,13,13,46,20.40
2006,08,13,13,47,20.50
2006,08,13,13,48,20.50
2006,08,13,13,49,20.40
2006,08,13,13,50,20.40
2006,08,13,13,51,20.40
2006,08,13,13,52,20.40
2006,08,13,13,53,20.30
2006,08,13,13,54,20.30
2006,08,13,13,55,20.30
2006,08,13,13,56,20.20
2006,08,13,13,57,20.20
2006,08,13,13,58,20.30
2006,08,13,13,59,20.30
2006,08,13,14,00,20.30
2006,08,13,14,01,20.30
2006,08,13,14,02,20.30
2006,08,13,14,03,20.40
2006,08,13,14,04,20.40
2006,08,13,14,05,20.40
2006,08,13,14,06,20.40
2006,08,13,14,07,20.50
2006,08,13,14,08,20.50
2006,08,13,14,09,20.50
2006,08,13,14,10,20.50
2006,08,13,14,11,20.50
2006,08,13,14,12,20.50
2006,08,13,14,13,20.50
2006,08,13,14,14,20.50
2006,08,13,14,15,20.50
2006,08,13,14,16,20.40
2006,08,13,14,17,20.30
2006,08,13,14,18,20.20
2006,08,13,14,19,20.20
2006,08,13,14,20,20.20
2006,08,13,14,21,20.20
2006,08,13,14,22,20.20
2006,08,13,14,23,20.20
2006,08,13,14,24,20.30
2006,08,13,14,25,20.50
2006,08,13,14,26,20.60
2006,08,13,14,27,20.70
2006,08,13,14,28,20.70
2006,08,13,14,29,20.70
2006,08,13,14,30,20.70
2006,08,13,14,31,20.80
2006,08,13,14,32,20.90
2006,08,13,14,33,21.00
2006,08,13,14,34,21.00
2006,08,13,14,35,21.00
2006,08,13,14,36,20.90
2006,08,13,14,37,20.90
2006,08,13,14,38,20.80
2006,08,13,14,39,20.70
2006,08,13,14,40,20.70
2006,08,13,14,41,20.60
2006,08,13,14,42,20.60
2006,08,13,14,43,20.40
2006,08,13,14,44,20.40
2006,08,13,14,45,20.40
2006,08,13,14,46,20.50
2006,08,13,14,47,20.60
2006,08,13,14,48,20.80
2006,08,13,14,49,20.80
2006,08,13,14,50,20.90
2006,08,13,14,51,21.00
2006,08,13,14,52,21.10
2006,08,13,14,53,21.20
2006,08,13,14,54,21.30
2006,08,13,14,55,21.30
2006,08,13,14,56,21.20
2006,08,13,14,57,21.30
2006,08,13,14,58,21.40
2006,08,13,14,59,21.50
2006,08,13,15,00,21.60
2006,08,13,15,01,21.60
2006,08,13,15,02,21.60
2006,08,13,15,03,21.60
2006,08,13,15,04,21.50
2006,08,13,15,05,21.30
2006,08,13,15,06,21.30
2006,08,13,15,07,21.40
2006,08,13,15,08,21.60
2006,08,13,15,09,21.70
2006,08,13,15,10,21.80
2006,08,13,15,11,21.80
2006,08,13,15,12,21.80
2006,08,13,15,13,21.80
2006,08,13,15,14,21.90
2006,08,13,15,15,21.90
2006,08,13,15,16,22.10
2006,08,13,15,17,22.20
2006,08,13,15,18,22.40
2006,08,13,15,19,22.40
2006,08,13,15,20,22.30
2006,08,13,15,21,22.30
2006,08,13,15,22,22.30
2006,08,13,15,23,22.30
2006,08,13,15,24,22.40
2006,08,13,15,25,22.40
2006,08,13,15,26,22.40
2006,08,13,15,27,22.40
2006,08,13,15,28,22.50
2006,08,13,15,29,22.50
2006,08,13,15,30,22.60
2006,08,13,15,31,22.70
2006,08,13,15,32,22.70
2006,08,13,15,33,22.80
2006,08,13,15,34,22.80
2006,08,13,15,35,22.70
2006,08,13,15,36,22.70
2006,08,13,15,37,22.70
2006,08,13,15,38,22.80
2006,08,13,15,39,22.70
2006,08,13,15,40,22.80
2006,08,13,15,41,22.80
2006,08,13,15,42,22.90
2006,08,13,15,43,23.00
2006,08,13,15,44,23.10
2006,08,13,15,45,23.10
2006,08,13,15,46,23.00
2006,08,13,15,47,23.00
2006,08,13,15,48,22.90
2006,08,13,15,49,22.90
2006,08,13,15,50,22.90
2006,08,13,15,51,22.90
2006,08,13,15,52,22.90
2006,08,13,15,53,23.00
2006,08,13,15,54,22.90
2006,08,13,15,55,22.90
2006,08,13,15,56,22.90
2006,08,13,15,57,22.90
2006,08,13,15,58,22.90
2006,08,13,15,59,22.90
2006,08,13,16,00,22.90
2006,08,13,16,01,22.90
2006,08,13,16,02,22.90
2006,08,13,16,03,22.90
2006,08,13,16,04,22.80
2006,08,13,16,05,22.80
2006,08,13,16,06,22.70
2006,08,13,16,07,22.70
2006,08,13,16,08,22.70
2006,08,13,16,09,22.70
2006,08,13,16,10,22.70
2006,08,13,16,11,22.70
2006,08,13,16,12,22.70
2006,08,13,16,13,22.70
2006,08,13,16,14,22.60
2006,08,13,16,15,22.60
2006,08,13,16,16,22.60
2006,08,13,16,17,22.60
2006,08,13,16,18,22.50
2006,08,13,16,19,22.40
2006,08,13,16,20,22.40
2006,08,13,16,21,22.30
2006,08,13,16,22,22.30
2006,08,13,16,23,22.40
2006,08,13,16,24,22.50
2006,08,13,16,25,22.60
2006,08,13,16,26,22.70
2006,08,13,16,27,22.70
2006,08,13,16,28,22.70
2006,08,13,16,29,22.60
2006,08,13,16,30,22.60
2006,08,13,16,31,22.60
2006,08,13,16,32,22.60
2006,08,13,16,33,22.60
2006,08,13,16,34,22.70
2006,08,13,16,35,22.80
2006,08,13,16,36,22.80
2006,08,13,16,37,22.80
2006,08,13,16,38,22.80
2006,08,13,16,39,22.90
2006,08,13,16,40,22.90
2006,08,13,16,41,22.90
2006,08,13,16,42,22.90
2006,08,13,16,43,22.90
2006,08,13,16,44,22.90
2006,08,13,16,45,22.90
2006,08,13,16,46,22.90
2006,08,13,16,47,23.00
2006,08,13,16,48,23.10
2006,08,13,16,49,23.10
2006,08,13,16,50,23.20
2006,08,13,16,51,23.20
2006,08,13,16,52,23.20
2006,08,13,16,53,23.20
2006,08,13,16,54,23.20
2006,08,13,16,55,23.20
2006,08,13,16,56,23.30
2006,08,13,16,57,23.30
2006,08,13,16,58,23.30
2006,08,13,16,59,23.30
2006,08,13,17,00,23.30
2006,08,13,17,01,23.30
2006,08,13,17,02,23.20
2006,08,13,17,03,23.20
2006,08,13,17,04,23.20
2006,08,13,17,05,23.20
2006,08,13,17,06,23.20
2006,08,13,17,07,23.30
2006,08,13,17,08,23.20
2006,08,13,17,09,23.20
2006,08,13,17,10,23.10
2006,08,13,17,11,23.00
2006,08,13,17,12,22.90
2006,08,13,17,13,22.90
2006,08,13,17,14,22.90
2006,08,13,17,15,23.00
2006,08,13,17,16,23.10
2006,08,13,17,17,23.10
2006,08,13,17,18,23.10
2006,08,13,17,19,23.00